User: anonymous   Login
Location: Caltech
(34.1382°N, 118.1253°W)
Time: 02:59:44
(UTC-07:00)
Language:

ITAMSAT 1 - Orbit

View from above orbital plane
View from above orbital plane
View from above satellite
View from above satellite

Ground track
Ground track

The orbit data is extracted from the following two-line orbital elements,

1 22826U 93061D   15180.84258062  .00000020  00000-0  24946-4 0  9990
2 22826 098.7034 131.1213 0007760 263.3802 096.6497 14.30206348134896
Epoch (UTC): 29 June 2015 20:13:18
Eccentricity: 0.0007760
inclination: 98.7034°
perigee height: 785 km
apogee height: 796 km
right ascension of ascending node: 131.1213°
argument of perigee: 263.3802°
revolutions per day: 14.30206348
mean anomaly at epoch: 96.6497°
orbit number at epoch: 13489

The dashed part of the orbit path shows where the satellite is in the earth's shadow,  

DLR